DELTA 1 DEB, 13525

Orbit data source: Space-Track

DELTA 1 DEB, 13525 is space debris in SSO originally from a launch on Tue, 06 Nov 1973 UTC launched from the Air Force Western Test Range (AFWTR). Debris objects in space refer to the collection of defunct objects orbiting the Earth. Examples of debris include non-operational satellites, rocket bodies, and fragments generated from explosions, collisions, or faulty payload assembly.

Loading next visibility...
Identifier
13525, 1973-086GN
Orbit
SSO
Country
Flag of USUS
Related business
Manufacturer
Unknown
Mission
Spacecraft
Bus & Motor
Unknown
Mass
Unknown
Launch date (UTC)
1973-11-06 (53 years ago)
Launch vehicle
Unknown
Launch site
Air Force Western Test Range (AFWTR)
Object type
Payload
Rocket body
Debris
Shape & HBR
Unknown shape, 0.1 m
Radar Cross Section
Medium (>0.1 m² and <1 m²)

Expand to show TLE details & history
Last TLE update: 18 hours ago

TLE from 18 hours ago
0 DELTA 1 DEB
1 13525U 73086GN  26235.41508791  .00000033  00000-0  50622-3 0  9997
2 13525 101.9536 214.0141 0076600 220.9654 294.7024 12.51231781105255
Epoch: 2026-08-23T09:57Z
TLE epoch observation values (Epoch: 2026-08-23T09:57:43.595Z)
Latitude
24.57834°
Longitude
-81.59974°
Altitude
1,437.301 km
Speed
7.156 km/s
True Right ascension
02h 38m 10s
True Declination
24° 27' 35"
Sunlit
Object was in daylight at epoch
Visualization orbit readout
Latitude
Unknown
Longitude
Unknown
Altitude
Unknown
Speed
Unknown
Apparent Right ascension
Unknown
Apparent Declination
Unknown
Sunlit
N/A
Visualization observer readout
Local Sidereal Time
19:00:14
Azimuth
Unknown
Elevation
Unknown
Doppler factor
Unknown
Orbital elements
Apogee altitude
1,516.92 km
Perigee altitude
1,396.888 km
Semi-major axis
7,835.041 km
Eccentricity
0.00766
Inclination
101.9536°
RAAN
214.0141°
Arg. of periapsis
220.9654°
True anomaly
293.90178°
Mean anomaly
294.7024°
Eccentric anomaly
294.30241°
Mean motion
3.12955 °/min
Orbital period
115.03 mins
BSTAR
0.00050622
Loading maneuver chart data...
Computing Atmospheric mass density...
Loading historical data...
Loading historical data...
Loading historical data...
Loading historical data...
Loading historical data...
Loading historical data...
Loading historical data...

Documentation

Showing up to 5 results
|